FW3157 Weather Reports


Display with metric or nautical units.
time (UTC)temp
F
wind
direction
speed
MPH
gust
MPH
rain 1hr
in
rain 24hr
in
rain mn
in
humidity
%
barometer
mb
20260905125838 91 314 3.0 7.0 0.00 0.00 0.00 34 1016.2
20260905125816 91 214 3.0 7.0 0.00 0.00 0.00 32 1016.2
20260905124826 90 234 4.0 9.0 0.00 0.00 0.00 33 1016.2
20260905124320 89 227 4.0 9.0 0.00 0.00 0.00 32 1016.3
20260905123814 89 288 4.0 8.0 0.00 0.00 0.00 34 1016.4
20260905123307 89 255 4.0 8.0 0.00 0.00 0.00 36 1016.5
20260905123246 89 261 4.0 8.0 0.00 0.00 0.00 36 1016.5
20260905122256 89 236 4.0 7.0 0.00 0.00 0.00 38 1016.5
20260905121749 89 236 4.0 8.0 0.00 0.00 0.00 36 1016.6
20260905121244 89 266 4.0 8.0 0.00 0.00 0.00 37 1016.6
20260905120738 89 238 4.0 8.0 0.00 0.00 0.00 34 1016.6
20260905120232 88 215 4.0 7.0 0.00 0.00 0.00 36 1016.9
20260905115725 88 285 3.0 7.0 0.00 0.00 0.00 38 1017.0
20260905115220 88 248 4.0 7.0 0.00 0.00 0.00 39 1017.0
20260905114715 88 268 4.0 7.0 0.00 0.00 0.00 39 1017.1
20260905114214 88 224 4.0 7.0 0.00 0.00 0.00 39 1017.1
20260905113714 88 250 4.0 8.0 0.00 0.00 0.00 42 1017.2
20260905113214 88 240 5.0 8.0 0.00 0.00 0.00 42 1017.2
20260905112712 88 251 4.0 7.0 0.00 0.00 0.00 39 1017.2
20260905112212 88 266 3.0 6.0 0.00 0.00 0.00 37 1017.2
20260905111714 87 257 3.0 6.0 0.00 0.00 0.00 35 1017.2
20260905111214 87 266 4.0 6.0 0.00 0.00 0.00 41 1017.3
20260905110712 87 269 4.0 6.0 0.00 0.00 0.00 38 1017.3
20260905110212 87 250 5.0 6.0 0.00 0.00 0.00 39 1017.3
20260905105712 87 259 4.0 6.0 0.00 0.00 0.00 38 1017.3
20260905105212 87 255 3.0 6.0 0.00 0.00 0.00 36 1017.4
20260905104935 87 283 4.0 6.0 0.00 0.00 0.00 41 1017.4
20260905104210 87 243 3.0 6.0 0.00 0.00 0.00 42 1017.5
20260905103710 86 259 3.0 6.0 0.00 0.00 0.00 41 1017.6
20260905103210 86 283 3.0 5.0 0.00 0.00 0.00 41 1017.6
20260905102707 86 291 3.0 5.0 0.00 0.00 0.00 44 1017.6
20260905102209 86 258 3.0 5.0 0.00 0.00 0.00 49 1017.7
20260905101703 85 243 3.0 5.0 0.00 0.00 0.00 49 1017.8
20260905101202 85 281 3.0 5.0 0.00 0.00 0.00 46 1017.8
20260905100702 85 264 3.0 5.0 0.00 0.00 0.00 49 1017.9
20260905100202 85 292 3.0 6.0 0.00 0.00 0.00 47 1018.0
20260905095659 85 280 3.0 6.0 0.00 0.00 0.00 50 1018.0
20260905095426 85 316 3.0 6.0 0.00 0.00 0.00 48 1018.1
20260905094700 84 284 4.0 6.0 0.00 0.00 0.00 48 1018.1
20260905094646 84 233 4.0 7.0 0.00 0.00 0.00 47 1018.1
20260905093656 84 258 4.0 7.0 0.00 0.00 0.00 51 1018.1
20260905093421 84 299 4.0 6.0 0.00 0.00 0.00 50 1018.2
20260905092655 84 296 4.0 7.0 0.00 0.00 0.00 51 1018.2
20260905092154 83 256 4.0 8.0 0.00 0.00 0.00 48 1018.3
20260905091911 83 267 4.0 8.0 0.00 0.00 0.00 51 1018.3
20260905091152 83 281 4.0 8.0 0.00 0.00 0.00 49 1018.4
20260905090651 83 251 3.0 8.0 0.00 0.00 0.00 52 1018.5
20260905090632 83 243 3.0 6.0 0.00 0.00 0.00 49 1018.4
20260905085651 83 252 3.0 7.0 0.00 0.00 0.00 50 1018.4
20260905085148 83 290 3.0 7.0 0.00 0.00 0.00 54 1018.4
20260905084918 83 341 3.0 6.0 0.00 0.00 0.00 55 1018.5
20260905084147 82 219 3.0 6.0 0.00 0.00 0.00 56 1018.5
20260905083647 82 267 2.0 6.0 0.00 0.00 0.00 56 1018.5
20260905083147 82 294 3.0 6.0 0.00 0.00 0.00 57 1018.6
20260905083132 82 272 3.0 6.0 0.00 0.00 0.00 59 1018.6
20260905082407 82 296 3.0 6.0 0.00 0.00 0.00 62 1018.6
20260905081646 81 302 3.0 6.0 0.00 0.00 0.00 61 1018.6
20260905081146 81 313 2.0 5.0 0.00 0.00 0.00 63 1018.6
20260905080642 81 352 2.0 5.0 0.00 0.00 0.00 64 1018.6
20260905080142 81 271 2.0 5.0 0.00 0.00 0.00 62 1018.6
20260905075642 81 269 2.0 5.0 0.00 0.00 0.00 62 1018.5
20260905075400 81 231 2.0 4.0 0.00 0.00 0.00 68 1018.5
20260905074642 80 255 2.0 5.0 0.00 0.00 0.00 65 1018.5
20260905074141 80 262 3.0 5.0 0.00 0.00 0.00 66 1018.5
20260905073641 80 272 3.0 6.0 0.00 0.00 0.00 65 1018.5
20260905073139 80 281 3.0 6.0 0.00 0.00 0.00 64 1018.5
20260905072638 80 287 2.0 5.0 0.00 0.00 0.00 63 1018.5
20260905072136 80 273 2.0 6.0 0.00 0.00 0.00 65 1018.4
20260905071631 79 221 2.0 6.0 0.00 0.00 0.00 65 1018.4
20260905071128 79 214 3.0 6.0 0.00 0.00 0.00 67 1018.4
20260905070628 79 208 3.0 6.0 0.00 0.00 0.00 68 1018.4
20260905070354 79 239 3.0 6.0 0.00 0.00 0.00 68 1018.4
20260905065626 79 229 3.0 5.0 0.00 0.00 0.00 66 1018.5
20260905065126 78 284 3.0 6.0 0.00 0.00 0.00 68 1018.4
20260905064624 78 225 3.0 6.0 0.00 0.00 0.00 68 1018.5
20260905064559 78 233 3.0 6.0 0.00 0.00 0.00 69 1018.4
20260905063623 77 233 4.0 6.0 0.00 0.00 0.00 69 1018.4
20260905063123 77 272 5.0 9.0 0.00 0.00 0.00 71 1018.4
20260905062621 77 255 5.0 9.0 0.00 0.00 0.00 72 1018.5
20260905062342 78 260 5.0 8.0 0.00 0.00 0.00 71 1018.4
20260905061621 78 264 5.0 8.0 0.00 0.00 0.00 72 1018.4
20260905061119 79 273 4.0 8.0 0.00 0.00 0.00 68 1018.4
20260905060619 80 257 2.0 6.0 0.00 0.00 0.00 62 1018.4
20260905060339 80 252 1.0 3.0 0.00 0.00 0.00 60 1018.4
20260905055619 80 231 1.0 3.0 0.00 0.00 0.00 60 1018.4
20260905055119 81 90 0.0 2.0 0.00 0.00 0.00 57 1018.4
20260905054619 81 90 0.0 1.0 0.00 0.00 0.00 57 1018.3
20260905054112 80 90 0.0 1.0 0.00 0.00 0.00 58 1018.3
20260905053605 80 89 1.0 1.0 0.00 0.00 0.00 58 1018.3
20260905053059 79 89 1.0 1.0 0.00 0.00 0.00 58 1018.4
20260905052552 79 89 1.0 1.0 0.00 0.00 0.00 58 1018.3
20260905052046 78 89 0.0 2.0 0.00 0.00 0.00 58 1018.2
20260905052025 78 89 0.0 2.0 0.00 0.00 0.00 58 1018.3
20260905051035 78 89 1.0 2.0 0.00 0.00 0.00 58 1018.3
20260905050529 78 89 1.0 2.0 0.00 0.00 0.00 58 1018.3
20260905050023 77 90 0.0 2.0 0.00 0.00 0.00 58 1018.3
20260905045516 77 75 0.0 2.0 0.00 0.00 0.00 60 1018.3
20260905045011 76 75 0.0 3.0 0.00 0.00 0.00 60 1018.2
20260905044505 76 75 0.0 3.0 0.00 0.00 0.00 61 1018.2
20260905043958 76 82 1.0 3.0 0.00 0.00 0.00 61 1018.1
20260905043452 75 82 1.0 3.0 0.00 0.00 0.00 62 1018.1
20260905042946 75 92 1.0 3.0 0.00 0.00 0.00 62 1018.1
20260905042448 75 93 1.0 2.0 0.00 0.00 0.00 62 1018.0
20260905042204 75 93 1.0 3.0 0.00 0.00 0.00 62 1017.9
20260905041428 75 92 2.0 4.0 0.00 0.00 0.00 62 1017.8
20260905040923 75 97 2.0 4.0 0.00 0.00 0.00 62 1017.8
20260905040634 75 99 2.0 4.0 0.00 0.00 0.00 62 1017.8
20260905040140 75 89 2.0 4.0 0.00 0.00 0.00 63 1017.7
20260905035404 75 91 2.0 4.0 0.00 0.00 0.00 63 1017.6
20260905034858 75 79 2.0 3.0 0.00 0.00 0.00 64 1017.6
20260905034352 75 104 2.0 3.0 0.00 0.00 0.00 65 1017.5
20260905033847 75 94 1.0 3.0 0.00 0.00 0.00 65 1017.6
20260905033340 74 108 1.0 3.0 0.00 0.00 0.00 65 1017.6
20260905032835 75 78 1.0 3.0 0.00 0.00 0.00 65 1017.6
20260905032329 75 89 1.0 3.0 0.00 0.00 0.00 65 1017.5
20260905031815 75 90 1.0 3.0 0.00 0.00 0.00 65 1017.5
20260905031749 75 102 0.0 2.0 0.00 0.00 0.00 64 1017.5
20260905031018 76 102 0.0 2.0 0.00 0.00 0.00 63 1017.4
20260905030256 76 102 0.0 1.0 0.00 0.00 0.00 63 1017.4
20260905025750 76 102 1.0 2.0 0.00 0.00 0.00 63 1017.3
20260905025246 76 102 1.0 2.0 0.00 0.00 0.00 63 1017.3
20260905025009 76 102 1.0 2.0 0.00 0.00 0.00 63 1017.3
20260905024232 76 105 0.0 2.0 0.00 0.00 0.00 63 1017.2
20260905023945 76 105 0.0 1.0 0.00 0.00 0.00 63 1017.2
20260905023221 76 105 0.0 1.0 0.00 0.00 0.00 63 1017.2
20260905022715 76 210 0.0 2.0 0.00 0.00 0.00 63 1017.2
20260905022208 76 210 0.0 2.0 0.00 0.00 0.00 63 1017.3
20260905021703 76 89 0.0 2.0 0.00 0.00 0.00 62 1017.2
20260905021157 76 89 1.0 2.0 0.00 0.00 0.00 62 1017.3
20260905020650 76 89 1.0 2.0 0.00 0.00 0.00 61 1017.2
20260905020405 76 89 0.0 2.0 0.00 0.00 0.00 61 1017.2
20260905015639 76 89 1.0 3.0 0.00 0.00 0.00 61 1017.3
20260905015133 76 89 2.0 5.0 0.00 0.00 0.00 61 1017.1
20260905014626 76 91 2.0 5.0 0.00 0.00 0.00 61 1017.2
20260905014120 76 107 1.0 3.0 0.00 0.00 0.00 60 1017.1
20260905013614 77 77 1.0 3.0 0.00 0.00 0.00 59 1017.1
20260905013108 77 98 1.0 2.0 0.00 0.00 0.00 58 1017.1
20260905012823 77 98 1.0 2.0 0.00 0.00 0.00 58 1017.0
20260905012057 77 98 0.0 2.0 0.00 0.00 0.00 58 1017.0
20260905011551 77 98 0.0 2.0 0.00 0.00 0.00 58 1017.0
20260905011534 77 98 1.0 4.0 0.00 0.00 0.00 57 1017.0
20260905010539 77 98 2.0 4.0 0.00 0.00 0.00 58 1016.9
20260905010033 77 99 1.0 2.0 0.00 0.00 0.00 58 1016.9
20260905005527 77 99 1.0 3.0 0.00 0.00 0.00 58 1016.9
20260905005021 76 99 1.0 3.0 0.00 0.00 0.00 58 1016.9
20260905004515 76 95 2.0 5.0 0.00 0.00 0.00 57 1016.9
20260905004236 77 82 3.0 5.0 0.00 0.00 0.00 56 1016.7
20260905003503 77 89 3.0 5.0 0.00 0.00 0.00 54 1016.7
20260905003221 77 96 2.0 4.0 0.00 0.00 0.00 52 1016.7
20260905002459 77 90 2.0 4.0 0.00 0.00 0.00 52 1016.7
20260905001958 77 120 1.0 4.0 0.00 0.00 0.00 53 1016.6
20260905001457 77 105 1.0 3.0 0.00 0.00 0.00 51 1016.6
20260905000955 77 304 1.0 3.0 0.00 0.00 0.00 51 1016.5
20260905000455 77 55 0.0 2.0 0.00 0.00 0.00 50 1016.5
20260905000218 77 55 1.0 2.0 0.00 0.00 0.00 50 1016.4
20260904235454 78 101 1.0 6.0 0.00 0.00 0.00 49 1016.3
20260904234952 77 104 2.0 6.0 0.00 0.00 0.00 49 1016.3
20260904234711 78 143 2.0 6.0 0.00 0.00 0.00 49 1016.3
20260904234207 78 113 2.0 6.0 0.00 0.00 0.00 49 1016.3
20260904233448 78 142 2.0 6.0 0.00 0.00 0.00 48 1016.3
20260904232947 78 97 1.0 4.0 0.00 0.00 0.00 48 1016.3
20260904232444 78 99 1.0 3.0 0.00 0.00 0.00 48 1016.3
20260904231945 78 152 1.0 3.0 0.00 0.00 0.00 48 1016.3
20260904231444 78 103 1.0 3.0 0.00 0.00 0.00 48 1016.3
20260904230945 78 115 1.0 3.0 0.00 0.00 0.00 48 1016.3
20260904230441 78 91 1.0 3.0 0.00 0.00 0.00 48 1016.2
20260904225941 78 148 1.0 3.0 0.00 0.00 0.00 50 1016.2
20260904225438 78 155 1.0 2.0 0.00 0.00 0.00 50 1016.3
20260904224939 78 149 1.0 2.0 0.00 0.00 0.00 52 1016.3
20260904224439 78 146 1.0 2.0 0.00 0.00 0.00 53 1016.3
20260904223939 79 148 1.0 2.0 0.00 0.00 0.00 54 1016.3
20260904223438 79 47 0.0 2.0 0.00 0.00 0.00 54 1016.3
20260904222939 79 46 1.0 2.0 0.00 0.00 0.00 54 1016.3
20260904222701 80 46 1.0 2.0 0.00 0.00 0.00 52 1016.3
20260904221938 80 259 1.0 3.0 0.00 0.00 0.00 50 1016.2
20260904221439 80 259 1.0 3.0 0.00 0.00 0.00 53 1016.2
20260904220939 80 203 1.0 3.0 0.00 0.00 0.00 53 1016.2
20260904220439 81 252 1.0 3.0 0.00 0.00 0.00 51 1016.3
20260904215939 81 269 1.0 3.0 0.00 0.00 0.00 49 1016.2
20260904215438 81 316 2.0 7.0 0.00 0.00 0.00 50 1016.3
20260904214938 81 302 3.0 7.0 0.00 0.00 0.00 50 1016.4
20260904214436 81 311 3.0 7.0 0.00 0.00 0.00 50 1016.4
20260904213934 81 311 2.0 7.0 0.00 0.00 0.00 46 1016.3
20260904213434 80 302 1.0 4.0 0.00 0.00 0.00 48 1016.4
20260904212928 80 252 1.0 3.0 0.00 0.00 0.00 48 1016.3
20260904212426 81 212 1.0 3.0 0.00 0.00 0.00 47 1016.3
20260904212151 80 271 0.0 2.0 0.00 0.00 0.00 45 1016.4
20260904211427 80 336 0.0 1.0 0.00 0.00 0.00 46 1016.3
20260904210929 80 336 1.0 1.0 0.00 0.00 0.00 46 1016.3
20260904210426 80 336 0.0 1.0 0.00 0.00 0.00 45 1016.3
20260904205925 80 336 2.0 8.0 0.00 0.00 0.00 46 1016.4
20260904205425 81 336 2.0 8.0 0.00 0.00 0.00 46 1016.4
20260904204925 81 47 1.0 5.0 0.00 0.00 0.00 44 1016.2
20260904204425 81 57 1.0 3.0 0.00 0.00 0.00 48 1016.3
20260904203926 81 20 1.0 3.0 0.00 0.00 0.00 47 1016.3
20260904203425 81 215 1.0 4.0 0.00 0.00 0.00 47 1016.2
20260904202925 81 238 1.0 4.0 0.00 0.00 0.00 47 1016.2
20260904202424 81 148 1.0 3.0 0.00 0.00 0.00 47 1016.2
20260904201924 81 183 1.0 2.0 0.00 0.00 0.00 47 1016.2
20260904201424 82 156 1.0 3.0 0.00 0.00 0.00 47 1016.2
20260904201142 82 198 1.0 3.0 0.00 0.00 0.00 46 1016.1
20260904200424 82 216 1.0 4.0 0.00 0.00 0.00 46 1016.2
20260904200145 82 159 1.0 4.0 0.00 0.00 0.00 49 1016.1
20260904195424 82 139 1.0 4.0 0.00 0.00 0.00 49 1016.1
20260904194925 82 150 1.0 3.0 0.00 0.00 0.00 45 1016.0
20260904194420 82 179 1.0 3.0 0.00 0.00 0.00 43 1016.0
20260904193920 83 58 1.0 3.0 0.00 0.00 0.00 45 1016.0
20260904193420 83 255 1.0 3.0 0.00 0.00 0.00 45 1016.0
20260904193143 83 255 1.0 4.0 0.00 0.00 0.00 44 1016.0
20260904192420 82 301 1.0 4.0 0.00 0.00 0.00 45 1016.0
20260904191919 83 136 1.0 4.0 0.00 0.00 0.00 44 1016.1
20260904191418 83 80 1.0 3.0 0.00 0.00 0.00 45 1016.0
20260904190918 84 172 1.0 3.0 0.00 0.00 0.00 43 1016.0
20260904190644 84 153 1.0 3.0 0.00 0.00 0.00 43 1016.0
20260904185915 83 103 0.0 2.0 0.00 0.00 0.00 45 1016.0
20260904185415 83 182 0.0 1.0 0.00 0.00 0.00 45 1016.0
20260904184913 83 185 0.0 0.0 0.00 0.00 0.00 46 1015.9
20260904184413 83 185 0.0 1.0 0.00 0.00 0.00 46 1015.9
20260904183912 83 185 1.0 2.0 0.00 0.00 0.00 46 1015.7
20260904183415 83 184 1.0 2.0 0.00 0.00 0.00 46 1015.7
20260904183411 84 143 0.0 2.0 0.00 0.00 0.00 47 1015.6
20260904182412 84 143 1.0 2.0 0.00 0.00 0.00 47 1015.5
20260904181911 84 103 1.0 4.0 0.00 0.00 0.00 48 1015.5
20260904181410 84 104 1.0 4.0 0.00 0.01 0.00 48 1015.4
20260904180908 84 135 1.0 3.0 0.00 0.01 0.00 48 1015.4
20260904180408 84 271 1.0 3.0 0.00 0.02 0.00 52 1015.3
20260904175909 84 271 1.0 3.0 0.00 0.04 0.00 54 1015.2
20260904175408 85 252 1.0 2.0 0.00 0.04 0.00 55 1015.1
20260904175129 85 268 0.0 2.0 0.00 0.05 0.00 54 1015.0
20260904174401 85 41 0.0 2.0 0.00 0.11 0.00 52 1015.0
20260904173856 85 41 1.0 3.0 0.00 0.17 0.00 53 1014.9
20260904173349 85 40 2.0 5.0 0.00 0.23 0.00 52 1014.9
20260904172843 86 314 2.0 5.0 0.00 0.42 0.00 50 1014.8
20260904172337 86 311 2.0 5.0 0.00 0.52 0.00 49 1014.7
20260904171830 86 277 3.0 9.0 0.00 0.52 0.00 49 1014.6
20260904171554 86 270 3.0 9.0 0.00 0.52 0.00 47 1014.5
20260904171059 86 258 3.0 7.0 0.00 0.52 0.00 47 1014.5
20260904170106 87 289 3.0 6.0 0.00 0.52 0.00 49 1014.3
20260904165600 87 267 4.0 6.0 0.00 0.52 0.00 47 1014.3
20260904165054 87 283 4.0 6.0 0.00 0.52 0.00 50 1014.3
20260904164548 87 292 3.0 6.0 0.00 0.52 0.00 47 1014.2
20260904164038 87 274 4.0 8.0 0.00 0.52 0.00 47 1014.2
20260904163532 88 273 4.0 8.0 0.00 0.52 0.00 45 1014.2
20260904163026 89 231 3.0 7.0 0.00 0.52 0.00 44 1014.1
20260904162520 89 248 3.0 6.0 0.00 0.52 0.00 44 1014.1
20260904162013 89 292 4.0 10.0 0.00 0.52 0.00 44 1014.1
20260904161507 90 259 5.0 10.0 0.00 0.52 0.00 43 1014.0
20260904161001 90 259 5.0 11.0 0.00 0.52 0.00 36 1014.1
20260904160456 91 261 5.0 11.0 0.00 0.52 0.00 34 1014.1
20260904155950 91 281 5.0 8.0 0.00 0.52 0.00 34 1014.1
20260904155443 90 281 5.0 10.0 0.00 0.52 0.00 36 1014.1
20260904154938 91 308 5.0 10.0 0.00 0.52 0.00 36 1014.1
20260904154433 91 298 6.0 12.0 0.00 0.52 0.00 34 1014.0
20260904153926 91 281 7.0 12.0 0.00 0.52 0.00 31 1014.1
20260904153646 91 290 7.0 13.0 0.00 0.52 0.00 33 1014.0
20260904153412 91 297 8.0 15.0 0.00 0.52 0.00 30 1014.0
20260904152426 91 299 7.0 15.0 0.00 0.52 0.00 30 1013.9
20260904151926 92 319 5.0 10.0 0.00 0.52 0.00 34 1013.9
20260904151426 92 289 3.0 10.0 0.00 0.52 0.00 30 1014.0
20260904150928 93 11 3.0 8.0 0.00 0.52 0.00 26 1014.0
20260904150650 93 2 3.0 9.0 0.00 0.52 0.00 24 1013.9
20260904145926 93 27 3.0 9.0 0.00 0.52 0.00 26 1014.0
20260904145426 93 27 3.0 9.0 0.00 0.52 0.00 27 1013.9
20260904144926 93 292 3.0 9.0 0.00 0.52 0.00 27 1014.0
20260904144426 93 280 3.0 6.0 0.00 0.52 0.00 26 1014.0
20260904143926 92 0 3.0 6.0 0.00 0.52 0.00 27 1014.0
20260904143426 92 341 3.0 7.0 0.00 0.52 0.00 28 1014.0
20260904142926 93 311 2.0 7.0 0.00 0.52 0.00 30 1014.1
20260904142426 93 294 2.0 5.0 0.00 0.52 0.00 30 1014.1
20260904141924 92 210 2.0 5.0 0.00 0.52 0.00 31 1014.1
20260904141650 92 207 1.0 4.0 0.00 0.52 0.00 31 1014.1
20260904140916 91 203 1.0 4.0 0.00 0.52 0.00 33 1014.2
20260904140410 90 274 2.0 5.0 0.00 0.52 0.00 33 1014.2
20260904140124 90 238 2.0 5.0 0.00 0.52 0.00 34 1014.2
20260904135357 91 210 2.0 7.0 0.00 0.52 0.00 34 1014.2
20260904134851 91 123 2.0 7.0 0.00 0.52 0.00 35 1014.2
20260904134346 91 212 2.0 6.0 0.00 0.52 0.00 34 1014.2
20260904133840 91 226 3.0 7.0 0.00 0.52 0.00 37 1014.2
20260904133334 90 200 3.0 7.0 0.00 0.52 0.00 38 1014.4
20260904132828 90 209 3.0 6.0 0.00 0.52 0.00 38 1014.4
20260904132551 90 143 3.0 6.0 0.00 0.52 0.00 37 1014.4
20260904131822 91 244 3.0 8.0 0.00 0.52 0.00 37 1014.4
20260904131320 91 211 3.0 8.0 0.00 0.52 0.00 38 1014.4
20260904130820 91 207 3.0 8.0 0.00 0.52 0.00 37 1014.5